TimeEST,TemperatureF,Dew PointF,Humidity,Sea Level PressureIn,VisibilityMPH,Wind Direction,Wind SpeedMPH,Gust SpeedMPH,PrecipitationIn,Events,Conditions,WindDirDegrees,DateUTC
12:15 AM,24.8,21.2,86,30.06,-9999.0,WNW,19.6,28.8,N/A,,Unknown,290,2013-01-18 05:15:00
12:17 AM,24.8,21.2,86,30.06,-9999.0,WNW,20.7,28.8,N/A,,Unknown,290,2013-01-18 05:17:00
12:35 AM,24.8,19.4,80,30.07,-9999.0,NW,17.3,33.4,N/A,Snow,Light Snow,320,2013-01-18 05:35:00
12:55 AM,24.8,19.4,80,30.07,-9999.0,WNW,18.4,25.3,N/A,,Unknown,300,2013-01-18 05:55:00
1:15 AM,24.8,19.4,80,30.09,-9999.0,WNW,10.4,26.5,N/A,,Unknown,300,2013-01-18 06:15:00
1:35 AM,23.0,19.4,86,30.08,-9999.0,WNW,9.2,21.9,N/A,,Unknown,300,2013-01-18 06:35:00
1:55 AM,-9999,-9999,N/A,30.08,-9999.0,WNW,16.1,-,N/A,,Unknown,290,2013-01-18 06:55:00
2:15 AM,-9999,-9999,N/A,30.09,-9999.0,WNW,16.1,-,N/A,,Unknown,290,2013-01-18 07:15:00
2:35 AM,-9999,-9999,N/A,30.09,-9999.0,West,21.9,-,N/A,,Unknown,280,2013-01-18 07:35:00
2:55 AM,21.2,19.4,93,30.09,-9999.0,West,17.3,27.6,N/A,,Overcast,280,2013-01-18 07:55:00
3:15 AM,21.2,19.4,93,30.09,-9999.0,WNW,25.3,31.1,N/A,,Overcast,290,2013-01-18 08:15:00
3:35 AM,21.2,19.4,93,30.08,-9999.0,West,25.3,31.1,N/A,,Overcast,280,2013-01-18 08:35:00
3:55 AM,21.2,17.6,86,30.08,-9999.0,WNW,19.6,40.3,N/A,,Overcast,290,2013-01-18 08:55:00
4:15 AM,21.2,17.6,86,30.08,-9999.0,WNW,24.2,38.0,N/A,,Mostly Cloudy,290,2013-01-18 09:15:00
4:35 AM,21.2,17.6,86,30.08,-9999.0,WNW,23.0,33.4,N/A,,Unknown,290,2013-01-18 09:35:00
4:55 AM,21.2,17.6,86,30.09,-9999.0,WNW,24.2,35.7,N/A,,Unknown,290,2013-01-18 09:55:00
5:15 AM,21.2,17.6,86,30.10,-9999.0,WNW,21.9,31.1,N/A,Snow,Light Snow,290,2013-01-18 10:15:00
5:35 AM,21.2,15.8,80,30.10,-9999.0,WNW,17.3,29.9,N/A,Snow,Light Snow,290,2013-01-18 10:35:00
5:55 AM,21.2,15.8,80,30.11,-9999.0,WNW,18.4,32.2,N/A,Snow,Light Snow,290,2013-01-18 10:55:00
6:15 AM,-9999,-9999,N/A,-9999,-9999.0,North,-9999.0,-,N/A,,Unknown,0,2013-01-18 11:15:00
6:35 AM,19.4,14.0,80,30.14,-9999.0,WNW,18.4,27.6,N/A,Snow,Light Snow,290,2013-01-18 11:35:00
6:55 AM,19.4,12.2,74,30.16,-9999.0,WNW,13.8,29.9,N/A,Snow,Light Snow,290,2013-01-18 11:55:00
7:15 AM,19.4,12.2,74,30.17,-9999.0,WNW,16.1,26.5,N/A,Snow,Light Snow,290,2013-01-18 12:15:00
7:35 AM,19.4,12.2,74,30.18,-9999.0,WNW,16.1,28.8,N/A,Snow,Light Snow,290,2013-01-18 12:35:00
7:55 AM,19.4,12.2,74,30.20,-9999.0,WNW,11.5,20.7,N/A,Snow,Light Snow,300,2013-01-18 12:55:00
8:15 AM,19.4,10.4,68,30.22,-9999.0,NW,15.0,20.7,N/A,Snow,Light Snow,310,2013-01-18 13:15:00
8:35 AM,19.4,10.4,68,30.24,-9999.0,WNW,19.6,24.2,N/A,Snow,Light Snow,300,2013-01-18 13:35:00
8:55 AM,19.4,8.6,63,30.25,1.5,WNW,19.6,29.9,N/A,,Haze,290,2013-01-18 13:55:00
9:15 AM,19.4,8.6,63,30.27,10.0,NW,15.0,28.8,N/A,,Clear,310,2013-01-18 14:15:00
9:35 AM,19.4,5.0,54,30.28,10.0,NW,16.1,27.6,N/A,,Clear,310,2013-01-18 14:35:00
9:55 AM,21.2,5.0,50,30.29,10.0,NW,15.0,21.9,N/A,,Clear,310,2013-01-18 14:55:00
10:15 AM,21.2,3.2,46,30.30,10.0,NW,13.8,21.9,N/A,,Clear,310,2013-01-18 15:15:00
10:35 AM,21.2,3.2,46,30.31,3.0,WNW,13.8,25.3,N/A,,Haze,300,2013-01-18 15:35:00
11:15 AM,23.0,3.2,43,30.32,10.0,WNW,15.0,26.5,N/A,,Clear,290,2013-01-18 16:15:00
11:35 AM,23.0,3.2,43,30.32,-9999.0,West,20.7,25.3,N/A,,Clear,280,2013-01-18 16:35:00
11:55 AM,24.8,3.2,40,30.32,10.0,WNW,13.8,21.9,N/A,,Clear,300,2013-01-18 16:55:00
12:15 PM,24.8,3.2,40,30.32,10.0,WNW,13.8,20.7,N/A,,Clear,300,2013-01-18 17:15:00
12:35 PM,26.6,5.0,40,30.31,10.0,NW,10.4,18.4,N/A,,Clear,310,2013-01-18 17:35:00
12:55 PM,26.6,3.2,37,30.31,10.0,NW,12.7,19.6,N/A,,Clear,310,2013-01-18 17:55:00
1:15 PM,28.4,3.2,34,30.32,10.0,WNW,6.9,-,N/A,,Clear,300,2013-01-18 18:15:00
1:35 PM,28.4,5.0,37,30.32,10.0,NNW,9.2,-,N/A,,Clear,330,2013-01-18 18:35:00
1:55 PM,28.4,5.0,37,30.33,10.0,NW,6.9,-,N/A,,Clear,320,2013-01-18 18:55:00
2:15 PM,30.2,6.8,37,30.34,10.0,NW,4.6,-,N/A,,Clear,320,2013-01-18 19:15:00
2:35 PM,30.2,6.8,37,30.34,10.0,West,6.9,-,N/A,,Clear,270,2013-01-18 19:35:00
2:55 PM,30.2,6.8,37,30.34,10.0,Calm,Calm,-,N/A,,Clear,0,2013-01-18 19:55:00
3:15 PM,30.2,8.6,40,30.34,10.0,West,6.9,-,N/A,,Clear,280,2013-01-18 20:15:00
3:35 PM,30.2,10.4,44,30.35,10.0,West,6.9,-,N/A,,Clear,270,2013-01-18 20:35:00
3:55 PM,30.2,14.0,51,30.35,10.0,West,9.2,-,N/A,,Clear,280,2013-01-18 20:55:00
4:15 PM,28.4,14.0,55,30.35,10.0,WNW,6.9,-,N/A,,Clear,290,2013-01-18 21:15:00
4:35 PM,28.4,14.0,55,30.35,10.0,West,8.1,-,N/A,,Clear,280,2013-01-18 21:35:00
4:55 PM,28.4,15.8,59,30.36,10.0,West,8.1,-,N/A,,Clear,270,2013-01-18 21:55:00
5:15 PM,28.4,14.0,55,30.36,10.0,West,6.9,-,N/A,,Clear,270,2013-01-18 22:15:00
5:35 PM,26.6,14.0,59,30.36,10.0,West,8.1,-,N/A,,Clear,260,2013-01-18 22:35:00
5:55 PM,26.6,14.0,59,30.36,10.0,West,9.2,-,N/A,,Clear,260,2013-01-18 22:55:00
6:15 PM,26.6,15.8,64,30.36,10.0,WSW,10.4,-,N/A,,Clear,250,2013-01-18 23:15:00
6:35 PM,24.8,15.8,69,30.37,10.0,West,11.5,-,N/A,,Clear,260,2013-01-18 23:35:00
6:55 PM,24.8,15.8,69,30.37,10.0,West,12.7,-,N/A,,Clear,260,2013-01-18 23:55:00
7:15 PM,24.8,15.8,69,30.37,10.0,West,12.7,-,N/A,,Clear,260,2013-01-19 00:15:00
7:35 PM,24.8,14.0,64,30.37,10.0,West,12.7,-,N/A,,Clear,260,2013-01-19 00:35:00
7:55 PM,24.8,12.2,59,30.37,10.0,WSW,15.0,-,N/A,,Clear,250,2013-01-19 00:55:00
8:15 PM,24.8,12.2,59,30.37,10.0,WSW,15.0,-,N/A,,Clear,250,2013-01-19 01:15:00
8:35 PM,24.8,14.0,64,30.37,10.0,WSW,16.1,-,N/A,,Clear,250,2013-01-19 01:35:00
8:55 PM,24.8,15.8,69,30.37,10.0,WSW,16.1,-,N/A,,Clear,250,2013-01-19 01:55:00
9:15 PM,24.8,15.8,69,30.37,10.0,WSW,16.1,-,N/A,,Clear,250,2013-01-19 02:15:00
9:35 PM,24.8,14.0,64,30.37,10.0,WSW,15.0,-,N/A,,Clear,250,2013-01-19 02:35:00
9:55 PM,24.8,12.2,59,30.37,10.0,WSW,16.1,-,N/A,,Clear,240,2013-01-19 02:55:00
10:15 PM,26.6,14.0,59,30.36,10.0,WSW,16.1,-,N/A,,Clear,250,2013-01-19 03:15:00
10:35 PM,26.6,12.2,55,30.35,10.0,WSW,15.0,-,N/A,,Clear,240,2013-01-19 03:35:00
11:15 PM,26.6,8.6,47,30.35,10.0,WSW,15.0,-,N/A,,Clear,240,2013-01-19 04:15:00
11:35 PM,26.6,6.8,43,30.34,10.0,WSW,15.0,-,N/A,,Clear,250,2013-01-19 04:35:00
11:55 PM,28.4,3.2,34,30.33,10.0,WSW,17.3,-,N/A,,Clear,240,2013-01-19 04:55:00